[Date Prev][Date Next][Thread Prev][Thread Next] - [Date Index][Thread Index][Author Index]

2 Line ISS Keps 3-18



ISS
1 25544U 98067A   05077.19979794  .00026512  00000-0  21063-3 0   378
2 25544 051.6476 006.4090 0003525 204.2712 305.1920 15.71045213361372
----
Via the sarex mailing list at AMSAT.ORG courtesy of AMSAT-NA.
To unsubscribe, send "unsubscribe sarex" to Majordomo@amsat.org



AMSAT Top AMSAT Home